{"data":{"norad_id":58766,"epoch":"2026-05-25T00:16:27.432768Z","epoch_age_seconds":73499,"freshness":"FRESH","line1":"1 58766U 24011B   26145.01142862  .00000346  00000+0  23809-4 0  9990","line2":"2 58766  53.1616  17.1935 0001159  93.0587 267.0547 15.30189570131982","mean_motion":15.3018957,"eccentricity":0.0001159,"inclination_deg":53.1616,"raan_deg":17.1935,"arg_perigee_deg":93.0587,"mean_anomaly_deg":267.0547,"bstar":2.3809e-5,"rev_number":13198,"period_min":94.105987142495,"perigee_km":474.45190458196,"apogee_km":476.04051881043,"semimajor_km":6853.3832116962,"source":"CELESTRAK","updated_at":"2026-05-25T13:38:18.743409Z"}}